User: anonymous   Login
Location: Unspecified
(0.0000°N, 0.0000°E)
Time: 01:37:29
(UTC+00:00)
Language:

ISS - Orbit

View from above orbital plane
View from above orbital plane
View from above satellite
View from above satellite

Ground track
Ground track

The orbit data is extracted from the following two-line orbital elements,

1 25544U 98067A   14295.51873843  .00020824  00000-0  36236-3 0  2802
2 25544 051.6468 188.4114 0002428 288.6769 077.2385 15.50735907911084
Epoch (UTC): 22 October 2014 12:26:59
Eccentricity: 0.0002428
inclination: 51.6468°
perigee height: 413 km
apogee height: 416 km
right ascension of ascending node: 188.4114°
argument of perigee: 288.6769°
revolutions per day: 15.50735907
mean anomaly at epoch: 77.2385°
orbit number at epoch: 91108

The dashed part of the orbit path shows where the satellite is in the earth's shadow,  

DLR